Find Starlink 35854

NORAD ID: 68214 Int'l Des: 2026-053 Owner: SPXS Country: US Constellation: starlink operational
LEOCIRCULARRETROGRADE

当前视图

正在加载3D地球...

About Starlink 35854

Starlink 35854 (NORAD 68214) is a starlink constellation satellite (v2 mini) launched Mar 17, 2026 by SPXS of US. It operates in LEO, CIRCULAR, RETROGRADE orbit with a mass of 575.00 kg.

关于 Starlink 35854

正在加载描述...

即将过境

Passes for default location (London). Set your location on the main map for personalized predictions.

高度历史

Loading altitude history...

两行轨道根数

1 68214U 26053H 26167.23786526 .00015604 00000-0 48483-3 0 9994
2 68214 97.2842 42.4087 0001630 89.6242 270.5188 15.33433369 15301
Epoch: Jun 16, 2026 • Age: 8 hours

当前状态

高度 489.2 km
速度 7.62 km/s
星下点 -58.70°S, 49.25°W
发射日期 Mar 17, 2026
运行时间 0.2 years
类型 internet

技术详情

分类 Payload
质量 575.00 kg
干质量 530.00 kg
总质量 575.00 kg
长度 0.30 m
直径 4.10 m
跨度 29.00 m
形状 Box + pan
制造商 SPXS
平台类型 Starlink V2MO
阶段状态 In Orbit
所有者/国家 SPXS/US

Most Searched